792  
ASUS43 KFSD 161610  
RWRFSD  
 
WEATHER ROUNDUP FOR SE SOUTH DAKOTA/SW MINNESOTA/NW IOWA  
NATIONAL WEATHER SERVICE SIOUX FALLS SD  
1100 AM CDT TUE JUL 16 2019  
 
NOTE: "FAIR" INDICATES FEW OR NO CLOUDS BELOW 12,000 FEET WITH NO  
SIGNIFICANT WEATHER AND OR S TO VISIBILITY
.  
 
 
SDZ038>040-050-052>070-161700-  
SOUTHEAST SOUTH DAKOTA  
 
CITY SKY/WX TMP DP RH WIND PRES REMARKS
 
BROOKINGS MOSUNNY 79 71 76 CALM 29.92R  
CHAMBERLAIN SUNNY 82 73 72 S6 29.91R  
HURON MOSUNNY 77 69 76 NE6 29.89F  
MADISON FAIR 79 73 83 NE5 29.92S  
MITCHELL PTSUNNY 76 66 71 NE6 29.90S  
SIOUX FALLS PTSUNNY 79 70 74 CALM 29.89S  
WINNER FAIR 80 67 64 CALM 29.93S  
YANKTON SUNNY 82 69 64 VRB6 29.91S  

 
 
MNZ071-072-080-081-089-090-097-098-161700-  
SOUTHWEST MINNESOTA  
 
CITY SKY/WX TMP DP RH WIND PRES REMARKS
 
FAIRMONT LGT RAIN 75 71 87 W3 29.89R  
JACKSON MOSUNNY 73 70 88 W9 29.92R  
LUVERNE PTSUNNY 72 64 78 S8 29.92R  
MARSHALL SUNNY 79 72 79 N9 29.89R  
MONTEVIDEO SUNNY 79 64 61 E8 29.90R  
PIPESTONE SUNNY 75 72 88 W3 29.92S  
REDWOOD FALLS SUNNY 79 73 82 NE6 29.87R  
WINDOM MOSUNNY 73 70 88 SW7 29.91R  
WORTHINGTON RAIN 64 63 94 S16G29 29.98R FOG  

 
 
IAZ001>003-012>014-020>022-031-032-NEZ013-014-SDZ071-161700-  
NORTHWEST IOWA  
 
CITY SKY/WX TMP DP RH WIND PRES REMARKS
 
CHEROKEE MOSUNNY 76 73 91 SW6 29.91R  
DENISON MOSUNNY 75 73 94 W8 29.93S  
ESTHERVILLE TSTM 68 64 87 SE22G61 29.93R VSB 3/4  
LE MARS SUNNY 77 70 78 SW5 29.91F  
MAURICE FAIR 75 72 88 SW5 29.92S  
SHELDON LGT RAIN 70 68 94 MISG 29.90F  
SIOUX CITY SUNNY 77 71 82 S8 29.92R  
SPENCER LGT RAIN 73 69 87 NW7 29.90R  
STORM LAKE SUNNY 72 72 100 SW9 29.89S  

 
 
ABBREVIATIONS USED IN REMARKS  
TC - TEMPERATURE IN CELSIUS  
WCI - WIND CHILL INDEX  
HX - HEAT INDEX  
VSB - VISIBILITY  
 
 
 
CLICK HERE TO GO TO PREVIOUS BULLETINS.

The Nexlab SD Page
The Nexlab IA Page
The Nexlab MN Page
The Nexlab NE Page Main Text Page